TimeCST,TemperatureF,Dew PointF,Humidity,Sea Level PressureIn,VisibilityMPH,Wind Direction,Wind SpeedMPH,Gust SpeedMPH,PrecipitationIn,Events,Conditions,WindDirDegrees,DateUTC
12:53 AM,51.1,35.1,54,29.51,10.0,NW,16.1,25.3,N/A,,Clear,310,2013-03-04 06:53:00
1:53 AM,52.0,33.1,49,29.51,10.0,WNW,16.1,-,N/A,,Clear,300,2013-03-04 07:53:00
2:53 AM,48.0,28.9,48,29.53,10.0,West,16.1,-,N/A,,Clear,280,2013-03-04 08:53:00
3:53 AM,48.0,27.0,44,29.53,10.0,West,12.7,-,N/A,,Clear,270,2013-03-04 09:53:00
4:53 AM,48.9,27.0,43,29.53,10.0,West,12.7,-,N/A,,Clear,280,2013-03-04 10:53:00
5:53 AM,45.0,27.0,49,29.57,10.0,West,4.6,-,N/A,,Clear,270,2013-03-04 11:53:00
6:53 AM,41.0,28.0,60,29.61,10.0,NW,13.8,-,N/A,,Clear,310,2013-03-04 12:53:00
7:53 AM,43.0,28.9,58,29.64,10.0,WNW,8.1,-,N/A,,Clear,290,2013-03-04 13:53:00
8:53 AM,48.9,27.0,43,29.67,10.0,North,12.7,26.5,N/A,,Clear,360,2013-03-04 14:53:00
9:53 AM,55.0,32.0,42,29.68,10.0,NNE,17.3,23.0,N/A,,Clear,30,2013-03-04 15:53:00
10:53 AM,55.9,34.0,44,29.69,10.0,NE,16.1,-,N/A,,Clear,50,2013-03-04 16:53:00
11:53 AM,59.0,34.0,39,29.68,10.0,NE,18.4,26.5,N/A,,Clear,50,2013-03-04 17:53:00
12:53 PM,59.0,33.1,38,29.68,10.0,NE,17.3,24.2,N/A,,Clear,50,2013-03-04 18:53:00
1:53 PM,60.1,32.0,35,29.66,10.0,NE,16.1,21.9,N/A,,Clear,50,2013-03-04 19:53:00
2:53 PM,59.0,30.9,35,29.65,10.0,ENE,17.3,24.2,N/A,,Clear,60,2013-03-04 20:53:00
3:53 PM,57.9,30.9,36,29.68,10.0,NE,16.1,21.9,N/A,,Mostly Cloudy,50,2013-03-04 21:53:00
4:53 PM,54.0,30.0,40,29.73,10.0,NNE,19.6,27.6,N/A,,Overcast,30,2013-03-04 22:53:00
5:53 PM,53.1,30.0,41,29.80,10.0,NNE,23.0,31.1,N/A,,Scattered Clouds,20,2013-03-04 23:53:00
6:53 PM,45.0,24.1,44,29.91,10.0,North,35.7,48.3,N/A,,Mostly Cloudy,10,2013-03-05 00:53:00
7:53 PM,37.9,30.0,73,30.01,10.0,North,26.5,36.8,N/A,,Scattered Clouds,10,2013-03-05 01:53:00
8:13 PM,37.4,30.2,75,30.04,10.0,North,29.9,38.0,N/A,,Mostly Cloudy,360,2013-03-05 02:13:00
8:23 PM,37.4,28.4,70,30.05,10.0,North,29.9,42.6,N/A,,Overcast,10,2013-03-05 02:23:00
8:53 PM,37.0,28.0,70,30.06,10.0,North,29.9,39.1,N/A,,Overcast,10,2013-03-05 02:53:00
9:53 PM,34.0,28.0,79,30.13,5.0,North,24.2,34.5,0.00,Snow,Light Snow,360,2013-03-05 03:53:00
10:03 PM,33.8,28.4,81,30.17,2.5,North,27.6,35.7,0.00,Snow,Light Snow,360,2013-03-05 04:03:00
10:08 PM,33.8,30.2,87,30.18,1.8,North,20.7,34.5,0.00,Snow,Light Snow,360,2013-03-05 04:08:00
10:21 PM,33.8,30.2,87,30.19,3.0,North,19.6,-,0.00,Snow,Light Snow,10,2013-03-05 04:21:00
10:29 PM,33.8,30.2,87,30.19,7.0,North,17.3,26.5,0.00,Snow,Light Snow,360,2013-03-05 04:29:00
10:53 PM,33.1,30.0,89,30.19,7.0,North,13.8,24.2,0.00,Snow,Light Snow,350,2013-03-05 04:53:00
11:53 PM,33.1,28.9,85,30.17,10.0,North,11.5,-,0.00,,Mostly Cloudy,350,2013-03-05 05:53:00